Regional Weather Roundup
Issued by NWS

Home | Current Version | Previous Version | Text Only | Print | Product List | Glossary On
Versions: 1 2 3 4 5 6 7 8 9 10 11 12 13 14 15 16 17 18 19 20 21 22 23 24 25 26 27 28 29 30 31 32 33 34 35 36 37 38 39 40 41 42 43 44 45 46 47 48 49 50
000
ASUS43 KTOP 160408
RWRKS

WEATHER ROUNDUP FOR KANSAS
NATIONAL WEATHER SERVICE GOODLAND KS
1100 PM CDT MON SEP 15 2014

NOTE:  "FAIR" INDICATES FEW OR NO CLOUDS BELOW 12,000 FEET WITH NO
SIGNIFICANT WEATHER AND/OR OBSTRUCTIONS TO VISIBILITY.

KSZ001>006-013>018-027>032-041>047-160500-
NORTHWEST KANSAS

CITY           SKY/WX    TMP DP  RH WIND       PRES   REMARKS
GOODLAND       CLEAR     53  50  89 S7        30.29S
HAYS           CLEAR     54  45  71 NE9       30.27R
HILL CITY      CLEAR     50  43  77 NE5       30.27R
RUSSELL        CLEAR     54  47  77 NE8       30.25R
$$

KSZ061>065-074>080-084>089-160500-
SOUTHWEST KANSAS

CITY           SKY/WX    TMP DP  RH WIND       PRES   REMARKS
DODGE CITY     CLOUDY    62  54  74 E5        30.27R
ELKHART          N/A     59  56  90 N1          N/A
GARDEN CITY    CLOUDY    62  55  77 E3        30.27R
GREAT BEND     CLEAR     57  52  82 NE7       30.25R
LIBERAL        CLOUDY    63  54  72 E6        30.29S
PRATT          CLEAR     59  54  82 CALM      30.25R HAZE
$$

KSZ066>073-081>083-090>101-160500-
SOUTHEAST KANSAS

CITY           SKY/WX    TMP DP  RH WIND       PRES   REMARKS
CHANUTE        CLOUDY    67  60  78 NE7       30.20R
COFFEYVILLE    CLOUDY    68  63  84 NE8       30.18R
HUTCHINSON     CLOUDY    65  54  67 NE7       30.23R
MEDICINE LODGE   N/A     66  58  75 NE6       30.21S
NEWTON         CLOUDY    63  50  63 E8        30.25R
PARSONS        CLOUDY    69  61  75 CALM      30.20S
WICHITA INTL   MOCLDY    67  56  67 NE14      30.21R
WICHITA JABRA  PTCLDY    63  57  81 NE8       30.21R
WICHITA MCCONL CLEAR     67  58  75 E9        30.21R
WINFIELD       CLOUDY    68  59  73 NE12      30.20R
$$

KSZ007>012-019>026-033>040-048>060-102>105-160500-
NORTHEAST KANSAS

CITY           SKY/WX    TMP DP  RH WIND       PRES   REMARKS
CONCORDIA      CLEAR     52  47  83 CALM      30.26R
EMPORIA        MOCLDY    58  52  80 NE12      30.23R
LAWRENCE       CLEAR     51  48  89 CALM      30.25R
MANHATTAN      CLEAR     55  49  80 NE6       30.25R
MARYSVILLE     CLEAR     50  46  87 E5        30.27R
OLATHE IND     CLEAR     51  49  92 NE3       30.25R
OLATHE EXE     CLEAR     55  50  83 NE5       30.23R
SALINA         CLEAR     61  50  67 NE5       30.25R
TOPEKA BILLARD CLEAR     54  52  93 N3        30.25R
TOPEKA FORBES  CLEAR     56  50  80 CALM      30.25R
$$


USA.gov is the U.S. government's official web portal to all federal, state and local government web resources and services.